OSCAR 31

Last updated on Fri Jun 19 2026 20:04:44 GMT+0000 (Coordinated Universal Time)

1 19420U 88074B 26170.34467051 .00000053 00000+0 74921-4 0 9993 2 19420 90.0420 21.3525 0096149 62.9993 109.7531 13.42612422851814
UTC large
Height (km)
Speed (km/s)
/
Latitude / Longitude
Inclination (degrees)
Orbital Period (minutes)
Azimuth
Elevation
Range (km)
Doppler Factor

Next 0 passes for location: London (51.5072 / 0.1276)

Sorry there are no passes over London.
OSCAR 31